Powrót do katalogu

KUIPER-00496

AktywnyŁącznośćVLEO
NORAD 69597·PAYLOAD·🇺🇸 United States

Wystrzelony Jun 17, 2026 z Guiana Space Centre

Loading…

Następne Przeloty (najbliższe 24 godziny)

TLE

ŚwieżeSource: CelesTrak SupGP

Epoka: Sep 14, 2026, 16:50 UTC

1 69597C 26140F   26257.70184028 -.00896870  00000+0 -61366-1 0  2570
2 69597  51.8898 329.9743 0007327 256.0010 255.5194 15.06466451    17

Śledź KUIPER-00496 w czasie rzeczywistym z AllMySat

Download on the App Store